User: anonymous   Login
Location: Friaudour
(46.0460°N, 1.2873°E)
Time: 08:58:12
(UTC+00:00)
Language:

ATLAS 5 CENTAUR R/B - Orbit

View from above orbital plane
View from above orbital plane
View from above satellite
View from above satellite

Ground track
Ground track

The orbit data is extracted from the following two-line orbital elements,

1 31702U 07027B   20269.06739307 0.00000150  00000-0  30699-4 0    03
2 31702  63.3643 333.6264 0410547  16.7556 343.2444 14.18804883    07
Epoch (UTC): 25 September 2020 01:37:02
Eccentricity: 0.0410547
inclination: 63.3643°
perigee height: 533 km
apogee height: 1125 km
right ascension of ascending node: 333.6264°
argument of perigee: 16.7556°
revolutions per day: 14.18804883
mean anomaly at epoch: 343.2444°
orbit number at epoch: 0

The dashed part of the orbit path shows where the satellite is in the earth's shadow,  

DLR